Location: Iesi
(43.5167°N, 13.2333°E)
Time: 00:32:48
(UTC+00:00)

Lacrosse 5 - Pass Details

Date: 08 August 2020
Orbit: 717 x 720 km, 57.0° (Epoch: 18 September)

Event Time Altitude Azimuth Distance (km) Brightness Sun altitude
Rises 21:38:16 0° 313° (NW) 3,129 6.2 -26.9°
Reaches altitude 10° 21:40:40 10° 316° (NW) 2,206 5.3 -27.1°
Enters shadow 21:45:31 68° 22° (NNE) 775 2.0 -27.4°
